Location: Moscow
(38.8570°N, 84.2291°W)
Time: 18:32:21
(UTC+00:00)

Cosmos 1975 Rocket - Pass Details

Date: 15 November 2025
Orbit: 598 x 626 km, 82.5° (Epoch: 11 December)

Event Time Altitude Azimuth Distance (km) Brightness Sun altitude
Rises 23:26:56 0° 350° (N) 2,867 6.4 -12.6°
Reaches altitude 10° 23:29:09 10° 349° (N) 1,963 5.6 -13.0°
Maximum altitude 23:33:29 75° 264° (W) 634 3.2 -13.9°
Drops below altitude 10° 23:37:49 10° 180° (S) 1,966 5.8 -14.7°
Sets 23:40:02 0° 178° (S) 2,871 6.6 -15.1°
